Time,TemperatureF,DewpointF,PressureIn,WindDirection,WindDirectionDegrees,WindSpeedMPH,WindSpeedGustMPH,Humidity,HourlyPrecipIn,Conditions,Clouds,dailyrainin,SoftwareType,DateUTC
2013-02-11 00:03:00,57.3,42.7,29.32,East,90,0.0,0.0,58,0.00,,,0.00,WUHU216HW,2013-02-11 06:03:00,
2013-02-11 00:08:00,57.2,43.0,29.32,NE,45,0.0,0.8,59,0.00,,,0.00,WUHU216HW,2013-02-11 06:08:00,
2013-02-11 00:13:00,57.0,42.8,29.32,North,0,0.0,0.8,59,0.00,,,0.00,WUHU216HW,2013-02-11 06:13:00,
2013-02-11 00:18:00,57.0,42.8,29.31,NNW,338,0.0,0.0,59,0.00,,,0.00,WUHU216HW,2013-02-11 06:18:00,
2013-02-11 00:23:00,57.0,42.4,29.32,NNW,338,0.0,0.0,58,0.00,,,0.00,WUHU216HW,2013-02-11 06:23:00,
2013-02-11 00:28:00,57.0,42.4,29.31,NW,315,0.0,0.8,58,0.00,,,0.00,WUHU216HW,2013-02-11 06:28:00,
2013-02-11 00:33:00,57.0,41.9,29.31,NE,45,0.0,0.8,57,0.00,,,0.00,WUHU216HW,2013-02-11 06:33:00,
2013-02-11 00:38:00,57.0,41.9,29.32,East,90,0.0,0.0,57,0.00,,,0.00,WUHU216HW,2013-02-11 06:38:00,
2013-02-11 00:43:00,57.0,41.4,29.32,East,90,0.0,0.0,56,0.00,,,0.00,WUHU216HW,2013-02-11 06:43:00,
2013-02-11 00:48:00,57.0,41.4,29.32,East,90,0.0,0.0,56,0.00,,,0.00,WUHU216HW,2013-02-11 06:48:00,
2013-02-11 00:53:00,57.0,41.4,29.32,NNW,338,0.0,0.0,56,0.00,,,0.00,WUHU216HW,2013-02-11 06:53:00,
2013-02-11 00:58:00,57.0,41.4,29.33,NNW,338,0.0,0.0,56,0.00,,,0.00,WUHU216HW,2013-02-11 06:58:00,
2013-02-11 01:03:00,57.0,41.9,29.32,NNW,338,0.0,0.0,57,0.00,,,0.00,WUHU216HW,2013-02-11 07:03:00,
2013-02-11 01:08:00,57.0,41.9,29.32,NNW,338,0.0,0.0,57,0.00,,,0.00,WUHU216HW,2013-02-11 07:08:00,
2013-02-11 01:13:00,57.0,41.9,29.33,NNW,338,0.0,0.0,57,0.00,,,0.00,WUHU216HW,2013-02-11 07:13:00,
2013-02-11 01:18:00,57.0,41.9,29.33,NNW,338,0.0,0.0,57,0.00,,,0.00,WUHU216HW,2013-02-11 07:18:00,
2013-02-11 01:23:00,57.0,41.9,29.33,NNW,338,0.0,0.0,57,0.00,,,0.00,WUHU216HW,2013-02-11 07:23:00,
2013-02-11 01:28:00,57.0,41.9,29.33,SSE,158,0.0,0.0,57,0.00,,,0.00,WUHU216HW,2013-02-11 07:28:00,
2013-02-11 01:33:00,56.8,42.6,29.32,South,180,0.0,0.0,59,0.00,,,0.00,WUHU216HW,2013-02-11 07:33:00,
2013-02-11 01:38:00,56.8,43.5,29.32,East,90,0.0,0.0,61,0.00,,,0.00,WUHU216HW,2013-02-11 07:38:00,
2013-02-11 01:43:00,56.4,42.8,29.31,ENE,68,0.0,0.0,60,0.00,,,0.00,WUHU216HW,2013-02-11 07:43:00,
2013-02-11 01:48:00,56.4,42.8,29.32,ESE,113,0.0,0.0,60,0.00,,,0.00,WUHU216HW,2013-02-11 07:48:00,
2013-02-11 01:53:00,56.3,42.6,29.31,East,90,0.0,0.0,60,0.00,,,0.00,WUHU216HW,2013-02-11 07:53:00,
2013-02-11 01:58:00,56.3,43.0,29.31,NE,45,0.0,0.0,60,0.00,,,0.00,WUHU216HW,2013-02-11 07:58:00,
2013-02-11 02:03:00,56.1,42.8,29.32,NE,45,0.0,0.0,61,0.00,,,0.00,WUHU216HW,2013-02-11 08:03:00,
2013-02-11 02:08:00,56.3,43.0,29.31,NNW,338,0.0,0.0,61,0.00,,,0.00,WUHU216HW,2013-02-11 08:08:00,
2013-02-11 02:13:00,56.3,43.4,29.32,NW,315,0.0,0.0,62,0.00,,,0.00,WUHU216HW,2013-02-11 08:13:00,
2013-02-11 02:18:00,56.3,43.4,29.32,ENE,68,0.0,0.0,62,0.00,,,0.00,WUHU216HW,2013-02-11 08:18:00,
2013-02-11 02:23:00,56.3,43.0,29.32,ENE,68,0.0,0.0,61,0.00,,,0.00,WUHU216HW,2013-02-11 08:23:00,
2013-02-11 02:28:00,56.1,43.2,29.32,ESE,113,0.0,0.0,62,0.00,,,0.00,WUHU216HW,2013-02-11 08:28:00,
2013-02-11 02:33:00,56.3,43.4,29.33,ESE,113,0.0,0.0,62,0.00,,,0.00,WUHU216HW,2013-02-11 08:33:00,
2013-02-11 02:38:00,56.1,43.2,29.32,ESE,113,0.0,0.0,62,0.00,,,0.00,WUHU216HW,2013-02-11 08:38:00,
2013-02-11 02:43:00,56.1,43.2,29.33,NNW,338,0.0,0.0,62,0.00,,,0.00,WUHU216HW,2013-02-11 08:43:00,
2013-02-11 02:48:00,56.3,43.8,29.32,NNW,338,0.0,0.0,63,0.00,,,0.00,WUHU216HW,2013-02-11 08:48:00,
2013-02-11 02:53:00,56.3,43.8,29.31,NE,45,0.0,0.0,63,0.00,,,0.00,WUHU216HW,2013-02-11 08:53:00,
2013-02-11 02:58:00,55.9,43.4,29.30,ENE,68,0.0,0.0,63,0.00,,,0.00,WUHU216HW,2013-02-11 08:58:00,
2013-02-11 03:03:00,55.7,43.3,29.30,NE,45,0.0,0.0,63,0.00,,,0.00,WUHU216HW,2013-02-11 09:03:00,
2013-02-11 03:08:00,55.7,43.3,29.31,ENE,68,0.0,0.0,63,0.00,,,0.00,WUHU216HW,2013-02-11 09:08:00,
2013-02-11 03:13:00,55.5,42.7,29.30,NE,45,0.0,0.0,62,0.00,,,0.00,WUHU216HW,2013-02-11 09:13:00,
2013-02-11 03:18:00,55.5,42.7,29.31,ENE,68,0.0,0.0,62,0.00,,,0.00,WUHU216HW,2013-02-11 09:18:00,
2013-02-11 03:23:00,55.5,42.7,29.31,ESE,113,0.0,0.0,62,0.00,,,0.00,WUHU216HW,2013-02-11 09:23:00,
2013-02-11 03:28:00,55.5,42.7,29.30,NE,45,0.0,0.0,62,0.00,,,0.00,WUHU216HW,2013-02-11 09:28:00,
2013-02-11 03:33:00,55.5,42.7,29.31,NNW,338,0.0,0.0,62,0.00,,,0.00,WUHU216HW,2013-02-11 09:33:00,
2013-02-11 03:38:00,55.4,42.5,29.32,WSW,248,0.0,0.0,62,0.00,,,0.00,WUHU216HW,2013-02-11 09:38:00,
2013-02-11 03:43:00,55.4,42.9,29.32,SW,225,0.0,0.0,63,0.00,,,0.00,WUHU216HW,2013-02-11 09:43:00,
2013-02-11 03:48:00,55.4,43.3,29.32,SW,225,0.0,0.0,64,0.00,,,0.00,WUHU216HW,2013-02-11 09:48:00,
2013-02-11 03:53:00,55.5,43.5,29.32,SW,225,0.0,0.0,64,0.00,,,0.00,WUHU216HW,2013-02-11 09:53:00,
2013-02-11 03:58:00,55.5,43.5,29.31,ENE,68,0.0,0.0,64,0.00,,,0.00,WUHU216HW,2013-02-11 09:58:00,
2013-02-11 04:03:00,55.5,43.5,29.29,NE,45,0.0,0.0,64,0.00,,,0.00,WUHU216HW,2013-02-11 10:03:00,
2013-02-11 04:08:00,55.2,43.1,29.29,NE,45,0.0,0.0,64,0.00,,,0.00,WUHU216HW,2013-02-11 10:08:00,
2013-02-11 04:13:00,55.4,43.1,29.29,ENE,68,0.0,0.0,64,0.00,,,0.00,WUHU216HW,2013-02-11 10:13:00,
2013-02-11 04:18:00,55.2,43.1,29.29,NE,45,0.0,0.0,64,0.00,,,0.00,WUHU216HW,2013-02-11 10:18:00,
2013-02-11 04:23:00,55.2,42.7,29.30,East,90,0.0,0.0,63,0.00,,,0.00,WUHU216HW,2013-02-11 10:23:00,
2013-02-11 04:28:00,55.0,42.6,29.30,SSE,158,0.0,0.0,63,0.00,,,0.00,WUHU216HW,2013-02-11 10:28:00,
2013-02-11 04:33:00,55.0,42.6,29.29,ESE,113,0.0,0.0,63,0.00,,,0.00,WUHU216HW,2013-02-11 10:33:00,
2013-02-11 04:38:00,55.0,43.0,29.30,East,90,0.0,0.0,64,0.00,,,0.00,WUHU216HW,2013-02-11 10:38:00,
2013-02-11 04:43:00,55.0,43.0,29.30,South,180,0.0,0.0,64,0.00,,,0.00,WUHU216HW,2013-02-11 10:43:00,
2013-02-11 04:48:00,54.8,43.2,29.31,South,180,0.0,0.0,65,0.00,,,0.00,WUHU216HW,2013-02-11 10:48:00,
2013-02-11 04:53:00,54.6,43.1,29.30,South,180,0.0,0.0,65,0.00,,,0.00,WUHU216HW,2013-02-11 10:53:00,
2013-02-11 04:58:00,54.5,42.9,29.31,South,180,0.0,0.0,65,0.00,,,0.00,WUHU216HW,2013-02-11 10:58:00,
2013-02-11 05:09:00,54.1,42.9,29.32,South,180,0.0,0.0,66,0.00,,,0.00,WUHU216HW,2013-02-11 11:09:00,
2013-02-11 05:14:00,54.1,42.9,29.33,South,180,0.0,0.0,66,0.00,,,0.00,WUHU216HW,2013-02-11 11:14:00,
2013-02-11 05:19:00,54.1,42.9,29.32,South,180,0.0,0.0,66,0.00,,,0.00,WUHU216HW,2013-02-11 11:19:00,
2013-02-11 05:24:00,54.1,42.9,29.33,South,180,0.0,0.0,66,0.00,,,0.00,WUHU216HW,2013-02-11 11:24:00,
2013-02-11 05:29:00,54.1,43.2,29.33,South,180,0.0,0.0,67,0.00,,,0.00,WUHU216HW,2013-02-11 11:29:00,
2013-02-11 05:34:00,53.9,43.2,29.33,South,180,0.0,0.0,67,0.00,,,0.00,WUHU216HW,2013-02-11 11:34:00,
2013-02-11 05:39:00,53.9,43.6,29.33,SSE,158,0.0,0.0,68,0.00,,,0.00,WUHU216HW,2013-02-11 11:39:00,
2013-02-11 05:44:00,54.1,43.7,29.33,East,90,0.0,0.0,68,0.00,,,0.00,WUHU216HW,2013-02-11 11:44:00,
2013-02-11 05:49:00,53.9,44.0,29.33,NNW,338,0.0,0.0,69,0.00,,,0.00,WUHU216HW,2013-02-11 11:49:00,
2013-02-11 05:54:00,54.1,44.4,29.33,WNW,293,0.0,0.0,70,0.00,,,0.00,WUHU216HW,2013-02-11 11:54:00,
2013-02-11 05:59:00,53.9,44.4,29.33,WNW,293,0.0,0.0,70,0.00,,,0.00,WUHU216HW,2013-02-11 11:59:00,
2013-02-11 06:09:00,54.1,44.6,29.33,WNW,293,0.0,0.0,70,0.00,,,0.00,WUHU216HW,2013-02-11 12:09:00,
2013-02-11 06:14:00,53.9,44.4,29.33,WNW,293,0.0,0.0,70,0.00,,,0.00,WUHU216HW,2013-02-11 12:14:00,
2013-02-11 06:19:00,54.1,44.6,29.34,WSW,248,0.0,0.0,70,0.00,,,0.00,WUHU216HW,2013-02-11 12:19:00,
2013-02-11 06:24:00,54.1,44.1,29.34,WSW,248,0.0,0.0,69,0.00,,,0.00,WUHU216HW,2013-02-11 12:24:00,
2013-02-11 06:29:00,54.3,44.3,29.34,NW,315,0.0,0.0,69,0.00,,,0.00,WUHU216HW,2013-02-11 12:29:00,
2013-02-11 06:34:00,54.3,44.3,29.33,NW,315,0.0,0.0,69,0.00,,,0.00,WUHU216HW,2013-02-11 12:34:00,
2013-02-11 06:39:00,54.3,44.3,29.34,WNW,293,0.0,0.0,69,0.00,,,0.00,WUHU216HW,2013-02-11 12:39:00,
2013-02-11 06:44:00,54.3,44.3,29.34,WNW,293,0.0,0.0,69,0.00,,,0.00,WUHU216HW,2013-02-11 12:44:00,
2013-02-11 06:49:00,54.3,44.3,29.35,WNW,293,0.0,0.0,69,0.00,,,0.00,WUHU216HW,2013-02-11 12:49:00,
2013-02-11 06:54:00,54.3,44.7,29.35,NNW,338,0.0,0.0,70,0.00,,,0.00,WUHU216HW,2013-02-11 12:54:00,
2013-02-11 06:59:00,54.3,45.1,29.34,WNW,293,0.0,0.0,71,0.00,,,0.00,WUHU216HW,2013-02-11 12:59:00,
2013-02-11 07:04:00,54.5,45.3,29.34,NW,315,0.0,0.0,71,0.00,,,0.00,WUHU216HW,2013-02-11 13:04:00,
2013-02-11 07:09:00,54.5,45.3,29.34,WNW,293,0.0,0.0,71,0.00,,,0.00,WUHU216HW,2013-02-11 13:09:00,
2013-02-11 07:14:00,54.5,44.9,29.36,West,270,0.0,0.0,70,0.00,,,0.00,WUHU216HW,2013-02-11 13:14:00,
2013-02-11 07:19:00,54.5,44.9,29.35,NNW,338,0.0,0.0,70,0.00,,,0.00,WUHU216HW,2013-02-11 13:19:00,
2013-02-11 07:24:00,54.5,44.5,29.34,NNW,338,0.0,0.0,69,0.00,,,0.00,WUHU216HW,2013-02-11 13:24:00,
2013-02-11 07:29:00,54.5,44.5,29.34,NW,315,0.0,0.0,69,0.00,,,0.00,WUHU216HW,2013-02-11 13:29:00,
2013-02-11 07:34:00,54.6,44.3,29.35,NW,315,0.0,0.0,68,0.00,,,0.00,WUHU216HW,2013-02-11 13:34:00,
2013-02-11 07:39:00,54.8,44.0,29.34,NW,315,0.0,0.0,67,0.00,,,0.00,WUHU216HW,2013-02-11 13:39:00,
2013-02-11 07:44:00,54.8,43.6,29.35,WNW,293,0.0,0.0,66,0.00,,,0.00,WUHU216HW,2013-02-11 13:44:00,
2013-02-11 07:49:00,54.8,44.0,29.35,West,270,0.0,0.0,67,0.00,,,0.00,WUHU216HW,2013-02-11 13:49:00,
2013-02-11 07:54:00,55.0,44.2,29.36,West,270,0.0,0.0,67,0.00,,,0.00,WUHU216HW,2013-02-11 13:54:00,
2013-02-11 07:59:00,55.2,44.4,29.36,West,270,0.0,0.0,67,0.00,,,0.00,WUHU216HW,2013-02-11 13:59:00,
2013-02-11 08:04:00,55.2,44.4,29.35,West,270,0.0,0.0,67,0.00,,,0.00,WUHU216HW,2013-02-11 14:04:00,
2013-02-11 08:09:00,55.2,44.4,29.36,WNW,293,0.0,0.0,67,0.00,,,0.00,WUHU216HW,2013-02-11 14:09:00,
2013-02-11 08:14:00,55.4,44.6,29.36,WNW,293,0.0,0.0,67,0.00,,,0.00,WUHU216HW,2013-02-11 14:14:00,
2013-02-11 08:19:00,55.7,44.9,29.35,NNW,338,0.0,0.0,67,0.00,,,0.00,WUHU216HW,2013-02-11 14:19:00,
2013-02-11 08:24:00,55.9,44.2,29.35,ENE,68,0.0,0.0,65,0.00,,,0.00,WUHU216HW,2013-02-11 14:24:00,
2013-02-11 08:29:00,55.9,43.8,29.35,ENE,68,0.0,0.0,64,0.00,,,0.00,WUHU216HW,2013-02-11 14:29:00,
2013-02-11 08:34:00,55.9,43.4,29.35,East,90,0.0,0.0,63,0.00,,,0.00,WUHU216HW,2013-02-11 14:34:00,
2013-02-11 08:39:00,55.9,43.0,29.36,ESE,113,0.0,0.0,62,0.00,,,0.00,WUHU216HW,2013-02-11 14:39:00,
2013-02-11 08:44:00,55.9,42.6,29.36,ENE,68,0.0,0.0,61,0.00,,,0.00,WUHU216HW,2013-02-11 14:44:00,
2013-02-11 08:49:00,55.9,42.6,29.36,ENE,68,0.0,0.0,61,0.00,,,0.00,WUHU216HW,2013-02-11 14:49:00,
2013-02-11 08:54:00,56.1,42.4,29.36,East,90,0.0,0.0,60,0.00,,,0.00,WUHU216HW,2013-02-11 14:54:00,
2013-02-11 08:59:00,56.1,42.4,29.36,East,90,0.0,0.0,60,0.00,,,0.00,WUHU216HW,2013-02-11 14:59:00,
2013-02-11 09:04:00,56.1,41.9,29.36,ESE,113,0.0,0.0,59,0.00,,,0.00,WUHU216HW,2013-02-11 15:04:00,
2013-02-11 09:09:00,56.3,42.1,29.36,ENE,68,0.0,0.0,59,0.00,,,0.00,WUHU216HW,2013-02-11 15:09:00,
2013-02-11 09:14:00,56.3,42.1,29.36,East,90,0.0,0.0,59,0.00,,,0.00,WUHU216HW,2013-02-11 15:14:00,
2013-02-11 09:19:00,56.4,42.3,29.37,ENE,68,0.0,0.0,59,0.00,,,0.00,WUHU216HW,2013-02-11 15:19:00,
2013-02-11 09:24:00,56.4,42.8,29.36,ENE,68,0.0,0.0,60,0.00,,,0.00,WUHU216HW,2013-02-11 15:24:00,
2013-02-11 09:29:00,56.4,42.3,29.36,ENE,68,0.0,0.0,59,0.00,,,0.00,WUHU216HW,2013-02-11 15:29:00,
2013-02-11 09:34:00,56.8,42.6,29.37,East,90,0.0,0.0,59,0.00,,,0.00,WUHU216HW,2013-02-11 15:34:00,
2013-02-11 09:39:00,57.0,42.8,29.37,East,90,0.0,0.0,59,0.00,,,0.00,WUHU216HW,2013-02-11 15:39:00,
2013-02-11 09:44:00,57.0,42.4,29.37,ENE,68,0.0,0.0,58,0.00,,,0.00,WUHU216HW,2013-02-11 15:44:00,
2013-02-11 09:49:00,57.0,42.4,29.37,ENE,68,0.0,0.0,58,0.00,,,0.00,WUHU216HW,2013-02-11 15:49:00,
2013-02-11 09:54:00,57.3,42.7,29.37,ENE,68,0.0,0.0,58,0.00,,,0.00,WUHU216HW,2013-02-11 15:54:00,
2013-02-11 09:59:00,57.3,42.2,29.37,ENE,68,0.0,0.0,57,0.00,,,0.00,WUHU216HW,2013-02-11 15:59:00,
2013-02-11 10:04:00,57.3,42.2,29.37,WNW,293,0.0,0.0,57,0.00,,,0.00,WUHU216HW,2013-02-11 16:04:00,
2013-02-11 10:09:00,57.3,42.7,29.39,South,180,0.0,0.0,58,0.00,,,0.00,WUHU216HW,2013-02-11 16:09:00,
2013-02-11 10:14:00,57.3,43.2,29.39,NNW,338,0.0,0.0,59,0.00,,,0.00,WUHU216HW,2013-02-11 16:14:00,
2013-02-11 10:19:00,57.2,43.9,29.39,ENE,68,0.0,0.0,61,0.02,,,0.02,WUHU216HW,2013-02-11 16:19:00,
2013-02-11 10:24:00,57.3,44.8,29.38,North,0,0.0,0.0,63,0.04,,,0.04,WUHU216HW,2013-02-11 16:24:00,
2013-02-11 10:29:00,57.5,45.0,29.39,NW,315,0.0,0.0,63,0.04,,,0.04,WUHU216HW,2013-02-11 16:29:00,
2013-02-11 10:34:00,57.7,45.6,29.40,North,0,0.0,0.0,64,0.04,,,0.04,WUHU216HW,2013-02-11 16:34:00,
2013-02-11 10:39:00,57.5,45.4,29.41,NW,315,0.0,0.0,64,0.04,,,0.04,WUHU216HW,2013-02-11 16:39:00,
2013-02-11 10:44:00,57.3,45.2,29.39,NNE,23,0.0,0.0,64,0.04,,,0.04,WUHU216HW,2013-02-11 16:44:00,
2013-02-11 10:49:00,57.2,45.1,29.40,NNW,338,0.0,0.0,64,0.04,,,0.04,WUHU216HW,2013-02-11 16:49:00,
2013-02-11 10:54:00,57.0,44.9,29.41,NNW,338,0.0,0.0,64,0.04,,,0.04,WUHU216HW,2013-02-11 16:54:00,
2013-02-11 10:59:00,56.8,45.1,29.39,NE,45,2.0,2.0,65,0.04,,,0.04,WUHU216HW,2013-02-11 16:59:00,
2013-02-11 11:04:00,56.4,44.8,29.40,NE,45,0.0,5.8,65,0.04,,,0.04,WUHU216HW,2013-02-11 17:04:00,
2013-02-11 11:09:00,56.3,44.6,29.40,North,0,0.0,5.8,65,0.04,,,0.04,WUHU216HW,2013-02-11 17:09:00,
2013-02-11 11:14:00,56.4,44.8,29.40,NNW,338,0.0,0.0,65,0.04,,,0.04,WUHU216HW,2013-02-11 17:14:00,
2013-02-11 11:19:00,56.3,44.6,29.38,NE,45,5.5,5.5,65,0.00,,,0.04,WUHU216HW,2013-02-11 17:19:00,
2013-02-11 11:24:00,56.1,44.4,29.38,NE,45,2.2,5.5,65,0.00,,,0.04,WUHU216HW,2013-02-11 17:24:00,
2013-02-11 11:29:00,55.9,44.2,29.39,East,90,2.4,5.5,65,0.00,,,0.04,WUHU216HW,2013-02-11 17:29:00,
2013-02-11 11:34:00,55.9,44.7,29.37,NE,45,0.0,2.6,66,0.00,,,0.04,WUHU216HW,2013-02-11 17:34:00,
2013-02-11 11:39:00,55.9,45.1,29.37,NE,45,0.0,2.6,67,0.00,,,0.04,WUHU216HW,2013-02-11 17:39:00,
2013-02-11 11:44:00,56.3,45.4,29.38,North,0,7.3,7.3,67,0.00,,,0.04,WUHU216HW,2013-02-11 17:44:00,
2013-02-11 11:49:00,56.4,45.6,29.38,North,0,0.0,7.3,67,0.00,,,0.04,WUHU216HW,2013-02-11 17:49:00,
2013-02-11 11:54:00,56.8,45.5,29.39,ESE,113,0.0,1.7,66,0.00,,,0.04,WUHU216HW,2013-02-11 17:54:00,
2013-02-11 11:59:00,57.0,46.1,29.42,West,270,1.5,1.5,67,0.00,,,0.04,WUHU216HW,2013-02-11 17:59:00,
2013-02-11 12:05:00,56.8,46.1,29.46,NW,315,3.5,13.4,68,0.00,,,0.04,WUHU216HW,2013-02-11 18:05:00,
2013-02-11 12:10:00,56.4,46.4,29.41,North,0,0.0,13.4,69,0.00,,,0.04,WUHU216HW,2013-02-11 18:10:00,
2013-02-11 12:15:00,56.3,46.6,29.40,NNW,338,0.0,5.1,70,0.02,,,0.06,WUHU216HW,2013-02-11 18:15:00,
2013-02-11 12:20:00,56.1,46.8,29.39,North,0,0.6,5.1,71,0.02,,,0.06,WUHU216HW,2013-02-11 18:20:00,
2013-02-11 12:25:00,56.3,47.3,29.39,ENE,68,2.2,2.2,72,0.02,,,0.06,WUHU216HW,2013-02-11 18:25:00,
2013-02-11 12:30:00,56.1,47.5,29.38,ENE,68,2.9,4.6,73,0.02,,,0.06,WUHU216HW,2013-02-11 18:30:00,
2013-02-11 12:35:00,56.1,48.4,29.38,NW,315,0.0,4.6,75,0.02,,,0.06,WUHU216HW,2013-02-11 18:35:00,
2013-02-11 12:40:00,56.4,48.2,29.38,NE,45,0.0,4.6,74,0.02,,,0.06,WUHU216HW,2013-02-11 18:40:00,
2013-02-11 12:45:00,56.4,48.2,29.39,East,90,0.0,4.6,74,0.02,,,0.06,WUHU216HW,2013-02-11 18:45:00,
2013-02-11 12:50:00,56.8,47.8,29.38,ENE,68,7.3,7.3,72,0.02,,,0.06,WUHU216HW,2013-02-11 18:50:00,
2013-02-11 12:55:00,56.6,46.9,29.37,North,0,1.1,7.3,70,0.02,,,0.06,WUHU216HW,2013-02-11 18:55:00,
2013-02-11 13:00:00,56.8,47.1,29.36,ENE,68,4.6,4.6,70,0.02,,,0.06,WUHU216HW,2013-02-11 19:00:00,
2013-02-11 13:05:00,56.8,46.7,29.35,ENE,68,7.6,12.3,69,0.02,,,0.06,WUHU216HW,2013-02-11 19:05:00,
2013-02-11 13:10:00,57.0,46.9,29.35,East,90,10.9,12.3,69,0.02,,,0.06,WUHU216HW,2013-02-11 19:10:00,
2013-02-11 13:15:00,56.8,46.3,29.34,ENE,68,9.6,10.9,68,0.00,,,0.06,WUHU216HW,2013-02-11 19:15:00,
2013-02-11 13:20:00,56.8,46.7,29.34,NNE,23,3.8,10.9,69,0.00,,,0.06,WUHU216HW,2013-02-11 19:20:00,
2013-02-11 13:25:00,57.0,46.9,29.34,East,90,4.0,10.2,69,0.00,,,0.06,WUHU216HW,2013-02-11 19:25:00,
2013-02-11 13:30:00,56.8,46.3,29.35,NE,45,2.0,6.7,68,0.00,,,0.06,WUHU216HW,2013-02-11 19:30:00,
2013-02-11 13:35:00,57.0,46.5,29.35,NNE,23,0.0,6.7,68,0.00,,,0.06,WUHU216HW,2013-02-11 19:35:00,
2013-02-11 13:40:00,57.0,46.5,29.34,NE,45,0.0,6.0,68,0.00,,,0.06,WUHU216HW,2013-02-11 19:40:00,
2013-02-11 13:45:00,57.0,46.9,29.34,NE,45,0.0,2.4,69,0.00,,,0.06,WUHU216HW,2013-02-11 19:45:00,
2013-02-11 13:50:00,57.3,46.8,29.35,WNW,293,0.0,2.4,68,0.00,,,0.06,WUHU216HW,2013-02-11 19:50:00,
2013-02-11 13:55:00,57.3,46.8,29.36,NNW,338,3.3,3.3,68,0.00,,,0.06,WUHU216HW,2013-02-11 19:55:00,
2013-02-11 14:00:00,57.3,47.6,29.35,NW,315,6.7,8.5,70,0.00,,,0.06,WUHU216HW,2013-02-11 20:00:00,
2013-02-11 14:05:00,57.3,48.0,29.34,NNW,338,1.5,8.5,71,0.00,,,0.06,WUHU216HW,2013-02-11 20:05:00,
2013-02-11 14:10:00,57.0,47.6,29.33,North,0,0.0,6.7,71,0.00,,,0.06,WUHU216HW,2013-02-11 20:10:00,
2013-02-11 14:15:00,57.0,48.0,29.33,North,0,2.4,5.5,72,0.00,,,0.06,WUHU216HW,2013-02-11 20:15:00,
2013-02-11 14:20:00,57.0,48.0,29.32,North,0,2.6,2.9,72,0.00,,,0.06,WUHU216HW,2013-02-11 20:20:00,
2013-02-11 14:25:00,57.0,48.0,29.32,ENE,68,5.8,5.8,72,0.00,,,0.06,WUHU216HW,2013-02-11 20:25:00,
2013-02-11 14:30:00,56.8,47.8,29.33,NE,45,0.0,5.8,72,0.00,,,0.06,WUHU216HW,2013-02-11 20:30:00,
2013-02-11 14:35:00,56.8,47.8,29.33,North,0,0.0,1.3,72,0.00,,,0.06,WUHU216HW,2013-02-11 20:35:00,
2013-02-11 14:40:00,56.8,47.8,29.33,NNE,23,0.0,0.0,72,0.00,,,0.06,WUHU216HW,2013-02-11 20:40:00,
2013-02-11 14:45:00,57.0,48.0,29.33,NE,45,0.0,0.0,72,0.00,,,0.06,WUHU216HW,2013-02-11 20:45:00,
2013-02-11 14:50:00,57.0,48.0,29.32,NNE,23,0.0,2.2,72,0.00,,,0.06,WUHU216HW,2013-02-11 20:50:00,
2013-02-11 14:55:00,57.0,47.6,29.32,North,0,0.0,2.2,71,0.00,,,0.06,WUHU216HW,2013-02-11 20:55:00,
2013-02-11 15:00:00,57.3,48.0,29.32,NNE,23,0.0,0.0,71,0.00,,,0.06,WUHU216HW,2013-02-11 21:00:00,
2013-02-11 15:05:00,57.5,48.2,29.32,NW,315,3.5,3.5,71,0.00,,,0.06,WUHU216HW,2013-02-11 21:05:00,
2013-02-11 15:10:00,57.7,48.3,29.33,NNE,23,0.0,3.5,71,0.00,,,0.06,WUHU216HW,2013-02-11 21:10:00,
2013-02-11 15:15:00,57.9,48.5,29.33,NNW,338,1.5,5.3,71,0.00,,,0.06,WUHU216HW,2013-02-11 21:15:00,
2013-02-11 15:20:00,58.1,48.7,29.33,NW,315,2.9,5.3,71,0.00,,,0.06,WUHU216HW,2013-02-11 21:20:00,
2013-02-11 15:25:00,58.1,48.3,29.33,North,0,0.0,2.9,70,0.00,,,0.06,WUHU216HW,2013-02-11 21:25:00,
2013-02-11 15:30:00,58.4,48.7,29.33,NW,315,0.8,1.3,70,0.00,,,0.06,WUHU216HW,2013-02-11 21:30:00,
2013-02-11 15:35:00,58.4,48.7,29.33,NNW,338,0.0,3.5,70,0.00,,,0.06,WUHU216HW,2013-02-11 21:35:00,
2013-02-11 15:40:00,58.4,48.7,29.33,North,0,0.0,3.5,70,0.00,,,0.06,WUHU216HW,2013-02-11 21:40:00,
2013-02-11 15:45:00,58.2,48.5,29.32,North,0,3.5,3.5,70,0.00,,,0.06,WUHU216HW,2013-02-11 21:45:00,
2013-02-11 15:50:00,58.1,48.3,29.32,WNW,293,1.3,3.8,70,0.00,,,0.06,WUHU216HW,2013-02-11 21:50:00,
2013-02-11 15:55:00,57.9,48.2,29.33,North,0,0.0,3.8,70,0.00,,,0.06,WUHU216HW,2013-02-11 21:55:00,
2013-02-11 16:00:00,57.7,48.3,29.32,NNW,338,0.0,6.9,71,0.00,,,0.06,WUHU216HW,2013-02-11 22:00:00,
2013-02-11 16:05:00,57.3,48.0,29.32,North,0,0.0,6.9,71,0.00,,,0.06,WUHU216HW,2013-02-11 22:05:00,
2013-02-11 16:10:00,57.3,48.0,29.32,WNW,293,0.0,3.8,71,0.00,,,0.06,WUHU216HW,2013-02-11 22:10:00,
2013-02-11 16:15:00,57.3,48.0,29.32,ENE,68,0.0,1.5,71,0.00,,,0.06,WUHU216HW,2013-02-11 22:15:00,
2013-02-11 16:20:00,57.2,47.8,29.33,WNW,293,4.0,4.0,71,0.00,,,0.06,WUHU216HW,2013-02-11 22:20:00,
2013-02-11 16:25:00,57.3,48.3,29.32,NNW,338,1.3,4.0,72,0.00,,,0.06,WUHU216HW,2013-02-11 22:25:00,
2013-02-11 16:30:00,57.0,48.0,29.32,NNW,338,0.0,1.3,72,0.00,,,0.06,WUHU216HW,2013-02-11 22:30:00,
2013-02-11 16:35:00,57.2,48.2,29.32,NE,45,0.0,0.8,72,0.00,,,0.06,WUHU216HW,2013-02-11 22:35:00,
2013-02-11 16:40:00,57.0,47.6,29.33,North,0,0.0,1.7,71,0.00,,,0.06,WUHU216HW,2013-02-11 22:40:00,
2013-02-11 16:45:00,57.0,47.6,29.33,NNW,338,0.0,1.7,71,0.00,,,0.06,WUHU216HW,2013-02-11 22:45:00,
2013-02-11 16:50:00,57.0,47.6,29.33,NNE,23,0.0,2.0,71,0.00,,,0.06,WUHU216HW,2013-02-11 22:50:00,
2013-02-11 16:55:00,56.8,47.4,29.32,NE,45,0.0,2.0,71,0.00,,,0.06,WUHU216HW,2013-02-11 22:55:00,
2013-02-11 17:00:00,56.4,47.1,29.33,NNE,23,0.0,1.3,71,0.00,,,0.06,WUHU216HW,2013-02-11 23:00:00,
2013-02-11 17:05:00,56.1,47.1,29.33,East,90,0.8,1.3,72,0.00,,,0.06,WUHU216HW,2013-02-11 23:05:00,
2013-02-11 17:10:00,55.9,47.0,29.33,North,0,1.5,1.5,72,0.00,,,0.06,WUHU216HW,2013-02-11 23:10:00,
2013-02-11 17:15:00,55.5,47.0,29.33,NNE,23,0.0,1.5,73,0.00,,,0.06,WUHU216HW,2013-02-11 23:15:00,
2013-02-11 17:20:00,55.4,46.8,29.33,NE,45,2.6,2.6,73,0.00,,,0.06,WUHU216HW,2013-02-11 23:20:00,
2013-02-11 17:25:00,55.2,46.7,29.33,NE,45,2.4,2.6,73,0.00,,,0.06,WUHU216HW,2013-02-11 23:25:00,
2013-02-11 17:30:00,55.2,47.0,29.33,NNE,23,0.0,2.4,74,0.00,,,0.06,WUHU216HW,2013-02-11 23:30:00,
2013-02-11 17:35:00,55.2,47.0,29.33,ENE,68,0.0,0.8,74,0.00,,,0.06,WUHU216HW,2013-02-11 23:35:00,
2013-02-11 17:40:00,55.2,47.0,29.33,ENE,68,2.4,2.4,74,0.00,,,0.06,WUHU216HW,2013-02-11 23:40:00,
2013-02-11 17:45:00,55.2,47.0,29.33,NE,45,1.1,2.4,74,0.00,,,0.06,WUHU216HW,2013-02-11 23:45:00,
2013-02-11 17:50:00,55.2,47.0,29.33,NE,45,0.0,2.4,74,0.00,,,0.06,WUHU216HW,2013-02-11 23:50:00,
2013-02-11 17:55:00,55.2,47.0,29.33,NE,45,0.0,2.0,74,0.00,,,0.06,WUHU216HW,2013-02-11 23:55:00,
2013-02-11 18:00:00,55.2,47.0,29.33,NE,45,0.0,1.3,74,0.00,,,0.06,WUHU216HW,2013-02-12 00:00:00,
2013-02-11 18:05:00,55.0,46.8,29.33,NE,45,0.0,3.5,74,0.00,,,0.06,WUHU216HW,2013-02-12 00:05:00,
2013-02-11 18:10:00,55.0,46.8,29.33,NE,45,0.8,3.5,74,0.00,,,0.06,WUHU216HW,2013-02-12 00:10:00,
2013-02-11 18:15:00,55.0,47.2,29.33,NNE,23,0.0,2.4,75,0.00,,,0.06,WUHU216HW,2013-02-12 00:15:00,
2013-02-11 18:20:00,55.0,46.8,29.33,NE,45,2.0,2.4,74,0.00,,,0.06,WUHU216HW,2013-02-12 00:20:00,
2013-02-11 18:25:00,55.0,46.8,29.33,NE,45,0.0,5.1,74,0.00,,,0.06,WUHU216HW,2013-02-12 00:25:00,
2013-02-11 18:30:00,54.8,47.0,29.33,ENE,68,0.0,5.1,75,0.00,,,0.06,WUHU216HW,2013-02-12 00:30:00,
2013-02-11 18:35:00,54.8,47.0,29.34,NNW,338,0.0,2.0,75,0.00,,,0.06,WUHU216HW,2013-02-12 00:35:00,
2013-02-11 18:41:00,55.0,47.2,29.34,ENE,68,1.5,1.5,75,0.00,,,0.06,WUHU216HW,2013-02-12 00:41:00,
2013-02-11 18:46:00,54.8,47.0,29.34,ENE,68,0.0,1.5,75,0.00,,,0.06,WUHU216HW,2013-02-12 00:46:00,
2013-02-11 18:51:00,54.8,47.0,29.34,ENE,68,4.0,4.0,75,0.00,,,0.06,WUHU216HW,2013-02-12 00:51:00,
2013-02-11 18:56:00,54.6,46.8,29.34,NE,45,0.0,4.2,75,0.00,,,0.06,WUHU216HW,2013-02-12 00:56:00,
2013-02-11 19:01:00,54.6,47.2,29.34,North,0,0.8,6.0,76,0.00,,,0.06,WUHU216HW,2013-02-12 01:01:00,
2013-02-11 19:06:00,54.5,47.0,29.34,ENE,68,2.0,6.0,76,0.00,,,0.06,WUHU216HW,2013-02-12 01:06:00,
2013-02-11 19:11:00,54.5,47.0,29.34,NE,45,2.9,2.9,76,0.00,,,0.06,WUHU216HW,2013-02-12 01:11:00,
2013-02-11 19:16:00,54.5,47.0,29.34,NNW,338,0.0,2.9,76,0.00,,,0.06,WUHU216HW,2013-02-12 01:16:00,
2013-02-11 19:21:00,54.5,47.4,29.34,NNE,23,0.0,2.9,77,0.00,,,0.06,WUHU216HW,2013-02-12 01:21:00,
2013-02-11 19:26:00,54.5,47.4,29.34,NNE,23,2.0,2.0,77,0.00,,,0.06,WUHU216HW,2013-02-12 01:26:00,
2013-02-11 19:31:00,54.3,47.2,29.33,NNE,23,0.0,2.0,77,0.00,,,0.06,WUHU216HW,2013-02-12 01:31:00,
2013-02-11 19:36:00,54.3,47.2,29.33,NNE,23,0.0,1.1,77,0.00,,,0.06,WUHU216HW,2013-02-12 01:36:00,
2013-02-11 19:41:00,54.3,47.2,29.33,NNE,23,0.0,0.8,77,0.00,,,0.06,WUHU216HW,2013-02-12 01:41:00,
2013-02-11 19:46:00,54.3,47.5,29.33,ENE,68,5.3,5.3,78,0.00,,,0.06,WUHU216HW,2013-02-12 01:46:00,
2013-02-11 19:51:00,54.3,47.5,29.33,ENE,68,1.3,5.3,78,0.00,,,0.06,WUHU216HW,2013-02-12 01:51:00,
2013-02-11 19:56:00,54.1,47.7,29.33,ENE,68,2.4,6.9,79,0.00,,,0.06,WUHU216HW,2013-02-12 01:56:00,
2013-02-11 20:01:00,53.9,47.6,29.33,NE,45,0.0,6.9,79,0.00,,,0.06,WUHU216HW,2013-02-12 02:01:00,
2013-02-11 20:06:00,53.9,47.6,29.33,ENE,68,1.5,4.4,79,0.00,,,0.06,WUHU216HW,2013-02-12 02:06:00,
2013-02-11 20:11:00,53.9,47.6,29.33,NE,45,1.3,6.2,79,0.00,,,0.06,WUHU216HW,2013-02-12 02:11:00,
2013-02-11 20:16:00,53.7,47.8,29.33,NE,45,2.0,6.2,80,0.00,,,0.06,WUHU216HW,2013-02-12 02:16:00,
2013-02-11 20:21:00,53.7,47.8,29.33,NE,45,2.9,4.2,80,0.00,,,0.06,WUHU216HW,2013-02-12 02:21:00,
2013-02-11 20:26:00,53.7,47.8,29.33,NE,45,0.0,6.2,80,0.00,,,0.06,WUHU216HW,2013-02-12 02:26:00,
2013-02-11 20:31:00,53.6,47.6,29.33,NE,45,0.0,6.2,80,0.00,,,0.06,WUHU216HW,2013-02-12 02:31:00,
2013-02-11 20:36:00,53.4,47.7,29.33,ENE,68,0.0,3.8,81,0.00,,,0.06,WUHU216HW,2013-02-12 02:36:00,
2013-02-11 20:41:00,53.4,47.7,29.33,ENE,68,2.0,2.0,81,0.00,,,0.06,WUHU216HW,2013-02-12 02:41:00,
2013-02-11 20:46:00,53.6,47.9,29.33,NE,45,1.7,3.8,81,0.00,,,0.06,WUHU216HW,2013-02-12 02:46:00,
2013-02-11 20:51:00,53.6,47.9,29.33,ENE,68,4.4,4.4,81,0.00,,,0.06,WUHU216HW,2013-02-12 02:51:00,
2013-02-11 20:56:00,53.7,48.1,29.32,NE,45,3.1,4.6,81,0.00,,,0.06,WUHU216HW,2013-02-12 02:56:00,
2013-02-11 21:01:00,53.4,47.7,29.32,ENE,68,6.7,6.7,81,0.00,,,0.06,WUHU216HW,2013-02-12 03:01:00,
2013-02-11 21:06:00,53.4,47.7,29.32,ENE,68,0.0,6.7,81,0.00,,,0.06,WUHU216HW,2013-02-12 03:06:00,
2013-02-11 21:11:00,53.4,47.7,29.32,North,0,0.0,6.7,81,0.00,,,0.06,WUHU216HW,2013-02-12 03:11:00,
2013-02-11 21:16:00,53.4,47.7,29.31,ENE,68,2.2,4.2,81,0.00,,,0.06,WUHU216HW,2013-02-12 03:16:00,
2013-02-11 21:21:00,53.4,47.7,29.32,ENE,68,0.0,4.2,81,0.00,,,0.06,WUHU216HW,2013-02-12 03:21:00,
2013-02-11 21:26:00,53.4,47.7,29.32,ENE,68,1.1,3.8,81,0.00,,,0.06,WUHU216HW,2013-02-12 03:26:00,
2013-02-11 21:31:00,53.4,47.7,29.32,ENE,68,0.0,3.8,81,0.00,,,0.06,WUHU216HW,2013-02-12 03:31:00,
2013-02-11 21:36:00,53.4,47.7,29.32,ENE,68,0.0,3.3,81,0.00,,,0.06,WUHU216HW,2013-02-12 03:36:00,
2013-02-11 21:41:00,53.4,47.7,29.32,NNW,338,0.0,3.3,81,0.00,,,0.06,WUHU216HW,2013-02-12 03:41:00,
2013-02-11 21:46:00,53.4,47.7,29.32,NE,45,0.0,1.5,81,0.00,,,0.06,WUHU216HW,2013-02-12 03:46:00,
2013-02-11 21:51:00,53.4,47.7,29.32,ENE,68,0.0,0.8,81,0.00,,,0.06,WUHU216HW,2013-02-12 03:51:00,
2013-02-11 21:56:00,53.4,47.7,29.32,NE,45,0.0,0.8,81,0.00,,,0.06,WUHU216HW,2013-02-12 03:56:00,
2013-02-11 22:01:00,53.4,47.4,29.32,NE,45,0.0,0.0,80,0.00,,,0.06,WUHU216HW,2013-02-12 04:01:00,
2013-02-11 22:06:00,53.4,47.4,29.32,ENE,68,0.0,0.0,80,0.00,,,0.06,WUHU216HW,2013-02-12 04:06:00,
2013-02-11 22:11:00,53.4,47.4,29.31,NE,45,0.0,0.0,80,0.00,,,0.06,WUHU216HW,2013-02-12 04:11:00,
2013-02-11 22:16:00,53.4,47.4,29.31,NE,45,0.0,0.0,80,0.00,,,0.06,WUHU216HW,2013-02-12 04:16:00,
2013-02-11 22:21:00,53.6,47.6,29.32,NE,45,0.0,0.0,80,0.00,,,0.06,WUHU216HW,2013-02-12 04:21:00,
2013-02-11 22:26:00,53.4,46.7,29.31,ENE,68,0.0,0.0,78,0.00,,,0.06,WUHU216HW,2013-02-12 04:26:00,
2013-02-11 22:31:00,53.4,46.7,29.31,East,90,0.0,0.0,78,0.00,,,0.06,WUHU216HW,2013-02-12 04:31:00,
2013-02-11 22:36:00,53.4,46.4,29.31,ENE,68,0.0,0.0,77,0.00,,,0.06,WUHU216HW,2013-02-12 04:36:00,
2013-02-11 22:41:00,53.4,46.4,29.32,ENE,68,0.0,0.0,77,0.00,,,0.06,WUHU216HW,2013-02-12 04:41:00,
2013-02-11 22:46:00,53.4,46.7,29.31,ENE,68,0.0,0.0,78,0.00,,,0.06,WUHU216HW,2013-02-12 04:46:00,
2013-02-11 22:51:00,53.6,46.9,29.31,ENE,68,0.0,0.0,78,0.00,,,0.06,WUHU216HW,2013-02-12 04:51:00,
2013-02-11 22:56:00,53.6,46.9,29.31,East,90,0.0,0.0,78,0.00,,,0.06,WUHU216HW,2013-02-12 04:56:00,
2013-02-11 23:01:00,53.6,46.5,29.31,NE,45,0.0,0.0,77,0.00,,,0.06,WUHU216HW,2013-02-12 05:01:00,
2013-02-11 23:06:00,53.6,46.5,29.31,East,90,0.0,0.0,77,0.00,,,0.06,WUHU216HW,2013-02-12 05:06:00,
2013-02-11 23:11:00,53.4,46.4,29.32,ENE,68,1.5,1.5,77,0.00,,,0.06,WUHU216HW,2013-02-12 05:11:00,
2013-02-11 23:16:00,53.4,46.4,29.32,ESE,113,0.0,1.5,77,0.00,,,0.06,WUHU216HW,2013-02-12 05:16:00,
2013-02-11 23:21:00,53.4,46.4,29.32,ENE,68,0.0,0.0,77,0.00,,,0.06,WUHU216HW,2013-02-12 05:21:00,
2013-02-11 23:26:00,53.4,46.7,29.31,East,90,0.0,0.0,78,0.00,,,0.06,WUHU216HW,2013-02-12 05:26:00,
2013-02-11 23:31:00,53.2,46.5,29.31,ENE,68,0.0,0.0,78,0.00,,,0.06,WUHU216HW,2013-02-12 05:31:00,
2013-02-11 23:36:00,53.2,46.5,29.31,East,90,0.0,0.0,78,0.00,,,0.06,WUHU216HW,2013-02-12 05:36:00,
2013-02-11 23:41:00,53.2,46.5,29.30,East,90,0.0,0.0,78,0.00,,,0.06,WUHU216HW,2013-02-12 05:41:00,
2013-02-11 23:46:00,53.2,46.9,29.31,ENE,68,2.0,2.0,79,0.00,,,0.06,WUHU216HW,2013-02-12 05:46:00,
2013-02-11 23:51:00,53.2,46.9,29.31,East,90,0.0,2.0,79,0.00,,,0.06,WUHU216HW,2013-02-12 05:51:00,
2013-02-11 23:56:00,53.2,47.3,29.31,East,90,0.0,2.0,80,0.00,,,0.06,WUHU216HW,2013-02-12 05:56:00,